This is the latest recevied weather packets stored in our database for station/object SQ9MHX-13. If no packets are shown the sender has not sent any weather packets the latest 10 day(s).
| Time | Temp. | Humidity | Pressure | Rain* | Wind** | Luminosity | Snow |
|---|---|---|---|---|---|---|---|
| 1777730356 | 21.11° C | 36% | 960.9 hPa | - | 0 m/s | - | - |
| 1777730057 | 22.22° C | 33% | 960.3 hPa | - | 0 m/s | - | - |
| 1777729758 | 21.11° C | 36% | 961.1 hPa | - | 0 m/s | - | - |
| 1777729458 | 21.11° C | 35% | 961.6 hPa | - | 0 m/s | - | - |
| 1777729159 | 21.11° C | 36% | 961.1 hPa | - | 0 m/s | - | - |
| 1777728860 | 22.22° C | 32% | 961.6 hPa | - | 0 m/s | - | - |
| 1777728561 | 20° C | 35% | 961.8 hPa | - | 0 m/s | - | - |
| 1777728262 | 21.11° C | 35% | 961.5 hPa | - | 0 m/s | - | - |
| 1777727963 | 21.11° C | 35% | 961.6 hPa | - | 0 m/s | - | - |
| 1777727664 | 21.11° C | 37% | 962.2 hPa | - | 0 m/s | - | - |
| 1777727066 | 21.11° C | 35% | 961.7 hPa | - | 0 m/s | - | - |
| 1777726767 | 21.11° C | 37% | 962.6 hPa | - | 0 m/s | - | - |
| 1777726468 | 20° C | 38% | 962.6 hPa | - | 0 m/s | - | - |
| 1777725870 | 21.11° C | 37% | 961 hPa | - | 0 m/s | - | - |
| 1777725571 | 20° C | 36% | 962.4 hPa | - | 0 m/s | - | - |
| 1777725272 | 20° C | 35% | 961.9 hPa | - | 0 m/s | - | - |
| 1777724973 | 20° C | 36% | 963.2 hPa | - | 0 m/s | - | - |
| 1777724674 | 20° C | 37% | 963.4 hPa | - | 0 m/s | - | - |
| 1777724076 | 20° C | 40% | 963.3 hPa | - | 0 m/s | - | - |
| 1777723777 | 20° C | 38% | 963.3 hPa | - | 0 m/s | - | - |
| 1777723179 | 22.22° C | 37% | 962 hPa | - | 0 m/s | - | - |
| 1777722880 | 20° C | 38% | 963 hPa | - | 0 m/s | - | - |
| 1777722281 | 21.11° C | 36% | 962.9 hPa | - | 0 m/s | - | - |
| 1777721982 | 20° C | 42% | 964.1 hPa | - | 0 m/s | - | - |
| 1777721683 | 17.78° C | 39% | 963.8 hPa | - | 0 m/s | - | - |
* Rain since midnight (hover to see other rain measurements)
** Current wind speed in m/s (hover to see current wind gust speed)